TimeCDT,TemperatureF,Dew PointF,Humidity,Sea Level PressureIn,VisibilityMPH,Wind Direction,Wind SpeedMPH,Gust SpeedMPH,PrecipitationIn,Events,Conditions,WindDirDegrees,DateUTC
12:15 AM,66.6,58.6,76,30.01,10.0,NNW,3.5,-,N/A,,Scattered Clouds,340,2013-08-03 05:15:00
12:35 AM,66.6,58.8,76,30.01,10.0,North,4.6,-,N/A,,Clear,350,2013-08-03 05:35:00
12:55 AM,65.3,58.6,79,30.01,10.0,North,3.5,-,N/A,,Clear,350,2013-08-03 05:55:00
1:15 AM,65.3,59.0,80,30.02,10.0,Calm,Calm,-,N/A,,Scattered Clouds,0,2013-08-03 06:15:00
1:35 AM,65.3,59.0,80,30.02,10.0,Calm,Calm,-,N/A,,Mostly Cloudy,0,2013-08-03 06:35:00
1:55 AM,64.0,59.0,84,30.03,10.0,NNW,3.5,-,N/A,,Overcast,330,2013-08-03 06:55:00
2:15 AM,64.0,59.0,84,30.03,10.0,NNW,3.5,-,N/A,,Overcast,330,2013-08-03 07:15:00
2:35 AM,64.9,59.0,81,30.03,10.0,Calm,Calm,-,N/A,,Overcast,0,2013-08-03 07:35:00
2:55 AM,64.6,58.1,79,30.04,10.0,Calm,Calm,-,N/A,,Scattered Clouds,0,2013-08-03 07:55:00
3:15 AM,62.2,57.0,83,30.04,10.0,Calm,Calm,-,N/A,,Clear,0,2013-08-03 08:15:00
3:35 AM,61.5,57.2,86,30.04,10.0,Calm,Calm,-,N/A,,Clear,0,2013-08-03 08:35:00
3:55 AM,61.7,56.8,84,30.04,10.0,Calm,Calm,-,N/A,,Clear,0,2013-08-03 08:55:00
4:15 AM,59.7,55.8,87,30.05,10.0,Calm,Calm,-,N/A,,Clear,0,2013-08-03 09:15:00
4:35 AM,61.0,56.5,85,30.04,10.0,NW,4.6,-,N/A,,Clear,320,2013-08-03 09:35:00
4:55 AM,60.8,56.3,85,30.04,10.0,North,3.5,-,N/A,,Clear,350,2013-08-03 09:55:00
5:15 AM,59.0,55.2,87,30.04,10.0,Calm,Calm,-,N/A,,Clear,0,2013-08-03 10:15:00
5:35 AM,59.0,55.6,88,30.05,10.0,Calm,Calm,-,N/A,,Clear,0,2013-08-03 10:35:00
5:55 AM,59.0,54.9,86,30.06,10.0,Calm,Calm,-,N/A,,Clear,0,2013-08-03 10:55:00
6:15 AM,58.3,54.7,88,30.06,10.0,Calm,Calm,-,N/A,,Clear,0,2013-08-03 11:15:00
6:35 AM,59.0,55.6,88,30.07,10.0,Calm,Calm,-,N/A,,Clear,0,2013-08-03 11:35:00
6:55 AM,59.0,55.4,88,30.07,10.0,Calm,Calm,-,N/A,,Clear,0,2013-08-03 11:55:00
7:15 AM,60.3,56.5,87,30.08,10.0,Calm,Calm,-,N/A,,Clear,0,2013-08-03 12:15:00
7:35 AM,61.7,56.5,83,30.07,10.0,Calm,Calm,-,N/A,,Clear,0,2013-08-03 12:35:00
7:55 AM,64.0,58.1,81,30.08,10.0,Calm,Calm,-,N/A,,Clear,0,2013-08-03 12:55:00
8:15 AM,64.8,57.0,76,30.08,10.0,NNE,3.5,-,N/A,,Clear,20,2013-08-03 13:15:00
8:35 AM,66.6,56.7,70,30.09,10.0,NE,3.5,-,N/A,,Clear,40,2013-08-03 13:35:00
8:55 AM,69.3,56.3,63,30.09,10.0,ENE,4.6,-,N/A,,Clear,60,2013-08-03 13:55:00
9:15 AM,71.8,57.0,60,30.10,10.0,NE,5.8,-,N/A,,Clear,50,2013-08-03 14:15:00
9:55 AM,74.3,54.0,49,30.11,10.0,NE,5.8,-,N/A,,Clear,50,2013-08-03 14:55:00
10:15 AM,74.3,53.8,49,30.12,10.0,NNE,6.9,-,N/A,,Clear,20,2013-08-03 15:15:00
10:35 AM,74.3,51.3,44,30.13,10.0,North,3.5,-,N/A,,Clear,360,2013-08-03 15:35:00
10:55 AM,76.3,50.4,40,30.13,10.0,NNE,6.9,-,N/A,,Clear,30,2013-08-03 15:55:00
11:15 AM,77.0,50.4,39,30.12,10.0,NNE,8.1,-,N/A,,Clear,30,2013-08-03 16:15:00
11:35 AM,77.9,50.9,39,30.13,10.0,Calm,Calm,-,N/A,,Clear,0,2013-08-03 16:35:00
11:55 AM,79.0,48.4,34,30.13,10.0,NNE,4.6,-,N/A,,Clear,20,2013-08-03 16:55:00
12:15 PM,77.7,48.6,36,30.13,10.0,NNW,5.8,-,N/A,,Clear,340,2013-08-03 17:15:00
12:35 PM,79.0,48.0,34,30.14,10.0,Calm,Calm,-,N/A,,Clear,0,2013-08-03 17:35:00
12:55 PM,79.3,48.7,34,30.14,10.0,North,8.1,-,N/A,,Clear,10,2013-08-03 17:55:00
1:15 PM,79.3,49.5,35,30.13,10.0,North,4.6,-,N/A,,Clear,360,2013-08-03 18:15:00
1:35 PM,79.3,48.4,34,30.14,10.0,WNW,9.2,-,N/A,,Scattered Clouds,290,2013-08-03 18:35:00
1:55 PM,79.3,46.6,31,30.13,10.0,NNW,6.9,16.1,N/A,,Scattered Clouds,330,2013-08-03 18:55:00
2:15 PM,79.3,48.6,34,30.14,10.0,NNW,10.4,-,N/A,,Clear,340,2013-08-03 19:15:00
2:35 PM,79.3,49.3,35,30.14,10.0,North,8.1,-,N/A,,Scattered Clouds,360,2013-08-03 19:35:00
2:55 PM,77.7,50.0,38,30.13,10.0,North,9.2,-,N/A,,Scattered Clouds,360,2013-08-03 19:55:00
3:15 PM,79.3,50.4,36,30.12,10.0,NNW,10.4,17.3,N/A,,Scattered Clouds,330,2013-08-03 20:15:00
3:35 PM,79.3,46.8,32,30.12,10.0,NW,10.4,16.1,N/A,,Scattered Clouds,310,2013-08-03 20:35:00
3:55 PM,79.3,47.7,33,30.11,10.0,NW,6.9,-,N/A,,Clear,310,2013-08-03 20:55:00
4:15 PM,79.3,48.0,33,30.11,10.0,North,8.1,-,N/A,,Clear,10,2013-08-03 21:15:00
4:35 PM,79.3,50.2,36,30.11,10.0,North,6.9,-,N/A,,Clear,350,2013-08-03 21:35:00
4:55 PM,79.3,50.2,36,30.11,10.0,NNE,8.1,-,N/A,,Clear,20,2013-08-03 21:55:00
5:15 PM,79.3,51.6,38,30.11,10.0,NNW,10.4,-,N/A,,Clear,340,2013-08-03 22:15:00
5:35 PM,79.3,51.1,37,30.11,10.0,NNW,8.1,-,N/A,,Clear,340,2013-08-03 22:35:00
5:55 PM,79.3,51.3,37,30.11,10.0,NNW,11.5,-,N/A,,Scattered Clouds,330,2013-08-03 22:55:00
6:15 PM,78.8,53.8,42,30.11,10.0,North,6.9,-,N/A,,Mostly Cloudy,350,2013-08-03 23:15:00
6:35 PM,79.3,53.1,40,30.12,10.0,NW,8.1,-,N/A,,Mostly Cloudy,320,2013-08-03 23:35:00
6:55 PM,76.3,52.7,44,30.12,10.0,NW,9.2,-,N/A,,Scattered Clouds,320,2013-08-03 23:55:00
7:15 PM,74.3,56.3,53,30.12,10.0,North,5.8,-,N/A,,Scattered Clouds,350,2013-08-04 00:15:00
7:35 PM,74.3,57.6,56,30.12,10.0,North,3.5,-,N/A,,Clear,350,2013-08-04 00:35:00
7:55 PM,71.8,57.4,60,30.13,10.0,North,3.5,-,N/A,,Scattered Clouds,360,2013-08-04 00:55:00
8:15 PM,71.2,57.2,61,30.13,10.0,Calm,Calm,-,N/A,,Scattered Clouds,0,2013-08-04 01:15:00
8:35 PM,66.6,57.7,73,30.13,10.0,Calm,Calm,-,N/A,,Clear,0,2013-08-04 01:35:00
8:55 PM,67.1,56.5,69,30.14,10.0,Calm,Calm,-,N/A,,Clear,0,2013-08-04 01:55:00
9:15 PM,65.1,56.5,74,30.14,10.0,Calm,Calm,-,N/A,,Clear,0,2013-08-04 02:15:00
9:35 PM,64.0,56.8,77,30.15,10.0,Calm,Calm,-,N/A,,Clear,0,2013-08-04 02:35:00
9:55 PM,64.0,57.4,79,30.15,10.0,Calm,Calm,-,N/A,,Clear,0,2013-08-04 02:55:00
10:15 PM,61.7,56.5,83,30.16,10.0,Calm,Calm,-,N/A,,Clear,0,2013-08-04 03:15:00
10:35 PM,61.7,55.6,80,30.16,10.0,WNW,3.5,-,N/A,,Clear,300,2013-08-04 03:35:00
10:55 PM,61.7,55.8,81,30.16,10.0,Calm,Calm,-,N/A,,Clear,0,2013-08-04 03:55:00
11:15 PM,61.5,55.8,81,30.16,10.0,Calm,Calm,-,N/A,,Clear,0,2013-08-04 04:15:00
11:35 PM,59.9,54.3,82,30.16,10.0,Calm,Calm,-,N/A,,Clear,0,2013-08-04 04:35:00
11:55 PM,59.0,54.1,84,30.17,10.0,Calm,Calm,-,N/A,,Clear,0,2013-08-04 04:55:00